TimeCST,TemperatureF,Dew PointF,Humidity,Sea Level PressureIn,VisibilityMPH,Wind Direction,Wind SpeedMPH,Gust SpeedMPH,PrecipitationIn,Events,Conditions,WindDirDegrees,DateUTC
12:53 AM,33.1,26.1,75,30.27,10.0,Calm,Calm,-,N/A,,Clear,0,2014-01-04 06:53:00
1:53 AM,28.9,23.0,78,30.25,10.0,Calm,Calm,-,N/A,,Clear,0,2014-01-04 07:53:00
2:53 AM,28.9,25.0,85,30.24,10.0,Calm,Calm,-,N/A,,Clear,0,2014-01-04 08:53:00
3:53 AM,28.0,25.0,88,30.23,10.0,Calm,Calm,-,N/A,,Clear,0,2014-01-04 09:53:00
4:46 AM,28.4,24.8,86,30.23,10.0,Calm,Calm,-,N/A,,Mostly Cloudy,0,2014-01-04 10:46:00
4:53 AM,28.9,26.1,89,30.23,10.0,Calm,Calm,-,N/A,,Mostly Cloudy,0,2014-01-04 10:53:00
5:53 AM,32.0,28.0,85,30.22,10.0,Calm,Calm,-,N/A,,Overcast,0,2014-01-04 11:53:00
6:30 AM,33.8,28.4,81,30.23,10.0,East,3.5,-,N/A,,Overcast,100,2014-01-04 12:30:00
6:53 AM,35.1,27.0,72,30.22,10.0,Calm,Calm,-,N/A,,Overcast,0,2014-01-04 12:53:00
7:53 AM,37.0,28.0,70,30.23,10.0,ESE,3.5,-,N/A,,Overcast,110,2014-01-04 13:53:00
8:53 AM,39.0,28.9,67,30.24,10.0,East,4.6,-,N/A,,Overcast,90,2014-01-04 14:53:00
9:53 AM,42.1,33.1,70,30.22,10.0,Variable,3.5,-,N/A,,Overcast,0,2014-01-04 15:53:00
10:53 AM,46.9,37.0,68,30.19,10.0,ESE,4.6,-,N/A,,Mostly Cloudy,120,2014-01-04 16:53:00
11:53 AM,53.1,41.0,64,30.15,10.0,Variable,5.8,-,N/A,,Clear,0,2014-01-04 17:53:00
12:53 PM,57.0,44.1,62,30.11,10.0,Variable,5.8,-,N/A,,Clear,0,2014-01-04 18:53:00
1:53 PM,60.1,45.0,57,30.08,10.0,SSE,6.9,-,N/A,,Clear,150,2014-01-04 19:53:00
2:53 PM,61.0,46.0,58,30.06,10.0,SSE,8.1,16.1,N/A,,Clear,160,2014-01-04 20:53:00
3:53 PM,61.0,46.0,58,30.05,10.0,SSE,6.9,-,N/A,,Clear,160,2014-01-04 21:53:00
4:53 PM,60.1,46.9,62,30.04,10.0,Variable,5.8,-,N/A,,Clear,0,2014-01-04 22:53:00
5:53 PM,57.0,46.0,67,30.03,10.0,SE,4.6,-,N/A,,Clear,130,2014-01-04 23:53:00
6:53 PM,55.0,45.0,69,30.01,10.0,Variable,5.8,-,N/A,,Clear,0,2014-01-05 00:53:00
7:53 PM,54.0,45.0,72,30.02,10.0,SE,4.6,-,N/A,,Clear,140,2014-01-05 01:53:00
8:53 PM,53.1,45.0,74,30.04,10.0,Variable,3.5,-,N/A,,Overcast,0,2014-01-05 02:53:00
9:53 PM,52.0,45.0,77,30.03,10.0,SE,4.6,-,N/A,,Overcast,140,2014-01-05 03:53:00
10:53 PM,52.0,46.0,80,30.01,10.0,SE,3.5,-,N/A,,Mostly Cloudy,130,2014-01-05 04:53:00
11:53 PM,52.0,46.0,80,30.00,10.0,SE,3.5,-,N/A,,Mostly Cloudy,140,2014-01-05 05:53:00